This demonstration page uses our WeatherBlox Daily Observations layout. Learn more.

Left ArrowRight Arrow

Hourly Observations for May 2, 2017

Temp ( °F °C ) Dew Point ( °F °C ) Humidity (%) Winds ( mph kmh ) Pressure ( in mb ) Visibility ( mi km ) Precip ( " mm )
12:56 am 00:56 Mostly Cloudy 39 4.1 37 2.9 92 92 Calm 29.80 1009 10 16 0.00 0.00
1:56 am 01:56 Clear 44 6.4 39 3.7 83 83 W 7 11 29.80 1009 10 16 0.00 0.00
2:56 am 02:56 Clear 46 7.7 40 4.3 79 79 W 10 17 29.80 1009 10 16 0.00 0.00
3:56 am 03:56 Clear 47 8.5 40 4.3 75 75 W 14 22 29.83 1010 10 16 0.00 0.00
4:56 am 04:56 Clear 47 8.6 39 4 73 73 WNW 14 22 29.85 1011 10 16 0.00 0.00
5:56 am 05:56 Clear 46 7.9 38 3.6 75 75 NW 7 11 29.89 1012 10 16 0.00 0.00
6:56 am 06:56 Sunny 43 6 37 3 81 81 W 5 7 29.91 1013 10 16 0.00 0.03
7:56 am 07:56 Sunny 48 9.1 40 4.3 72 72 NW 8 13 29.94 1014 10 16 0.00 0.00
8:56 am 08:56 Sunny 52 11.1 41 5.2 67 67 WNW 12 19 29.97 1015 10 16 0.00 0.00
9:56 am 09:56 Sunny 54 12.3 42 5.7 64 64 W 8 13 29.99 1016 10 16 0.00 0.00
10:56 am 10:56 Sunny 57 13.9 44 6.5 61 61 WNW 7 11 29.99 1016 10 16 0.00 0.00
11:56 am 11:56 Mostly Sunny 60 15.3 43 6.3 55 55 WSW 6 9 30.01 1016 10 16 0.00 0.00
12:56 pm 12:56 Mostly Sunny 61 16.3 42 5.6 49 49 WSW 5 7 30.00 1016 10 16 0.00 0.00
1:56 pm 13:56 Mostly Sunny 62 16.5 40 4.2 44 44 WNW 5 7 29.99 1016 10 16 0.00 0.00
2:56 pm 14:56 Sunny 64 18 40 4.5 41 41 W 5 7 29.99 1016 10 16 0.00 0.00
3:56 pm 15:56 Mostly Cloudy 64 17.5 39 4.1 41 41 Calm 29.99 1016 10 16 0.00 0.00
4:56 pm 16:56 Sunny 63 17.4 37 2.9 38 38 SW 5 7 29.98 1015 10 16 0.00 0.00
5:56 pm 17:56 Partly Cloudy 63 17.4 39 3.7 40 40 S 3 6 29.97 1015 9 14 0.00 0.00
6:56 pm 18:56 Mostly Cloudy 64 17.5 39 4.1 41 41 Calm 29.98 1015 10 16 0.00 0.00
7:56 pm 19:56 Mostly Sunny 60 15.4 43 5.9 53 53 E 3 6 29.98 1015 10 16 0.00 0.00
8:56 pm 20:56 Clear 53 11.5 47 8.5 82 82 Calm 30.01 1016 10 16 0.00 0.00
9:56 pm 21:56 Mostly Clear 51 10.4 46 7.6 83 83 Calm 30.03 1017 10 16 0.00 0.00
10:56 pm 22:56 Clear 49 9.3 44 6.9 85 85 Calm 30.04 1017 10 16 0.00 0.00
11:56 pm 23:56 Clear 49 9.3 45 7.2 87 87 Calm 30.04 1017 7 11 0.00 0.00

Powered by AerisWeather